Weather in Skelleftea

Sweden     64°44′27″N   20°57′46″E
temp.,
°C
wind,
m/s
gust,
m/s
humid.,
%
clouds,
%
prec.,
mm/h
press.,
hPa
HPBL,
m
28 july, wed
wed2823:00+18ssw116081 0.0 101511
02:00+16wsw116539 0.0 101411
05:00+16nw11735 0.1 101314
08:00+23n11442 0.1 1011264
11:00+27e32330 0.0 1010959
14:00+27e33330 0.0 1009984
17:00+26se34350 0.0 1007758
20:00+22ese11540 0.0 100511
29 july, thu
thu2923:00+17sw00640 0.0 100411
02:00+15nw11683 0.0 100211
05:00+16n11685 0.0 100013
08:00+20ne35584 0.0 999350
11:00+20ne56676 0.0 999546
14:00+21ene56602 0.0 998593
17:00+20ne46622 0.0 997555
20:00+19ne38730 0.0 995500
30 july, fri
fri3023:00+16nne5118396 0.0 994430
02:00+15ne5118970 0.0 993561
05:00+14ne61192100 0.3 992594
08:00+14ne61189100 0.7 992729
11:00+14nne61184100 0.1 992768
14:00+14ne51089100 0.3 992699
17:00+14ne4991100 0.3 992523
20:00+14nne3785100 0.3 993450
31 july, sat
sat3123:00+11nnw239515 0.0 99494
02:00+8nw249837 0.0 99595
05:00+9nw269690 0.0 995205
08:00+15n356720 0.0 995636
11:00+19ne234772 0.0 9961215
14:00+21e334288 0.0 9961575
17:00+18sse455896 0.0 997657
20:00+16s3668100 0.0 997347
1 august, sun
sun123:00+12s2391100 0.3 99751
02:00+11s1193100 0.3 99719
05:00+12s1385100 0.0 99799
08:00+14ene0084100 0.1 99761
11:00+15e1280100 0.0 998297
14:00+16e2271100 0.0 998512
17:00+16ese0067100 0.0 998416
20:00+14se0076100 0.0 99913